| time (UTC) | temp F | wind direction | speed knots | gust knots | rain 1hr in | rain 24hr in | rain mn in | humidity % | barometer mb |
| 20260507203414 | 75 | 193 | 3.5 | 7.0 | 0.00 | 0.00 | 0.00 | 60 | 1015.1 |
| 20260507202910 | 75 | 244 | 4.3 | 6.1 | 0.00 | 0.00 | 0.00 | 62 | 1015.0 |
| 20260507202406 | 76 | 322 | 4.3 | 6.1 | 0.00 | 0.00 | 0.00 | 59 | 1015.1 |
| 20260507201902 | 76 | 9 | 2.6 | 6.1 | 0.00 | 0.00 | 0.00 | 58 | 1015.1 |
| 20260507201358 | 75 | 254 | 5.2 | 7.0 | 0.00 | 0.00 | 0.00 | 60 | 1015.1 |
| 20260507200854 | 75 | 275 | 5.2 | 6.1 | 0.00 | 0.00 | 0.00 | 59 | 1015.1 |
| 20260507200350 | 75 | 253 | 1.7 | 6.1 | 0.00 | 0.00 | 0.00 | 59 | 1015.3 |
| 20260507195846 | 75 | 187 | 1.7 | 6.1 | 0.00 | 0.00 | 0.00 | 61 | 1015.3 |
| 20260507195344 | 74 | 293 | 3.5 | 5.2 | 0.00 | 0.00 | 0.00 | 60 | 1015.3 |
| 20260507194841 | 75 | 261 | 3.5 | 5.2 | 0.00 | 0.00 | 0.00 | 59 | 1015.2 |
| 20260507194337 | 74 | 231 | 3.5 | 7.0 | 0.00 | 0.00 | 0.00 | 60 | 1015.1 |
| 20260507193834 | 76 | 272 | 1.7 | 5.2 | 0.00 | 0.00 | 0.00 | 57 | 1015.3 |
| 20260507193331 | 75 | 205 | 1.7 | 7.0 | 0.00 | 0.00 | 0.00 | 60 | 1015.2 |
| 20260507192827 | 74 | 132 | 1.7 | 5.2 | 0.00 | 0.00 | 0.00 | 61 | 1015.3 |
| 20260507192324 | 74 | 300 | 3.5 | 5.2 | 0.00 | 0.00 | 0.00 | 61 | 1015.4 |
| 20260507191820 | 75 | 233 | 5.2 | 7.0 | 0.00 | 0.00 | 0.00 | 58 | 1015.5 |
| 20260507191316 | 75 | 243 | 3.5 | 5.2 | 0.00 | 0.00 | 0.00 | 60 | 1015.6 |
| 20260507190813 | 74 | 272 | 3.5 | 6.1 | 0.00 | 0.00 | 0.00 | 60 | 1015.8 |
| 20260507190312 | 74 | 256 | 2.6 | 6.1 | 0.00 | 0.00 | 0.00 | 60 | 1015.8 |
| 20260507185810 | 74 | 259 | 3.5 | 5.2 | 0.00 | 0.00 | 0.00 | 60 | 1015.8 |
| 20260507185307 | 75 | 277 | 2.6 | 3.5 | 0.00 | 0.00 | 0.00 | 59 | 1015.7 |
| 20260507184805 | 74 | 238 | 1.7 | 5.2 | 0.00 | 0.00 | 0.00 | 60 | 1015.8 |
| 20260507184303 | 74 | 232 | 3.5 | 6.1 | 0.00 | 0.00 | 0.00 | 61 | 1015.9 |
| 20260507183759 | 75 | 229 | 2.6 | 3.5 | 0.00 | 0.00 | 0.00 | 57 | 1016.0 |
| 20260507183256 | 75 | 197 | 2.6 | 5.2 | 0.00 | 0.00 | 0.00 | 59 | 1016.0 |
| 20260507182754 | 74 | 250 | 1.7 | 2.6 | 0.00 | 0.00 | 0.00 | 60 | 1016.1 |
| 20260507182254 | 73 | 320 | 1.7 | 2.6 | 0.00 | 0.00 | 0.00 | 61 | 1015.9 |
| 20260507181751 | 73 | 228 | 1.7 | 3.5 | 0.00 | 0.00 | 0.00 | 61 | 1016.0 |
| 20260507181247 | 74 | 137 | 1.7 | 2.6 | 0.00 | 0.00 | 0.00 | 59 | 1016.1 |
| 20260507180744 | 74 | 137 | 0.9 | 2.6 | 0.00 | 0.00 | 0.00 | 59 | 1016.0 |
| 20260507180241 | 74 | 136 | 0.9 | 2.6 | 0.00 | 0.00 | 0.00 | 59 | 1016.2 |
| 20260507175736 | 73 | 136 | 0.0 | 2.6 | 0.00 | 0.00 | 0.00 | 60 | 1016.3 |
| 20260507175233 | 73 | 137 | 2.6 | 3.5 | 0.00 | 0.00 | 0.00 | 62 | 1016.2 |
| 20260507174731 | 72 | 136 | 1.7 | 3.5 | 0.00 | 0.00 | 0.00 | 63 | 1016.2 |
| 20260507174229 | 71 | 136 | 1.7 | 2.6 | 0.00 | 0.00 | 0.00 | 64 | 1016.4 |
| 20260507173726 | 71 | 136 | 1.7 | 3.5 | 0.00 | 0.00 | 0.00 | 65 | 1016.3 |
| 20260507173223 | 71 | 136 | 0.0 | 1.7 | 0.00 | 0.00 | 0.00 | 64 | 1016.5 |
| 20260507172719 | 70 | 136 | 0.0 | 0.9 | 0.00 | 0.00 | 0.00 | 65 | 1016.3 |
| 20260507172211 | 70 | 136 | 3.5 | 5.2 | 0.00 | 0.00 | 0.00 | 66 | 1016.4 |
| 20260507171710 | 70 | 136 | 1.7 | 2.6 | 0.00 | 0.00 | 0.00 | 65 | 1016.5 |
| 20260507171208 | 69 | 135 | 2.6 | 5.2 | 0.00 | 0.00 | 0.00 | 67 | 1016.6 |
| 20260507170704 | 69 | 136 | 0.9 | 2.6 | 0.00 | 0.00 | 0.00 | 67 | 1016.4 |
| 20260507170202 | 70 | 136 | 2.6 | 6.1 | 0.00 | 0.00 | 0.00 | 66 | 1016.6 |
| 20260507165658 | 71 | 135 | 0.9 | 2.6 | 0.00 | 0.00 | 0.00 | 65 | 1016.5 |
| 20260507165154 | 70 | 135 | 0.0 | 0.0 | 0.00 | 0.00 | 0.00 | 64 | 1016.6 |
| 20260507164650 | 69 | 136 | 0.9 | 1.7 | 0.00 | 0.00 | 0.00 | 67 | 1016.4 |
| 20260507164147 | 69 | 135 | 0.0 | 2.6 | 0.00 | 0.00 | 0.00 | 66 | 1016.6 |
| 20260507163644 | 68 | 136 | 0.0 | 0.9 | 0.00 | 0.00 | 0.00 | 67 | 1016.6 |
| 20260507163143 | 66 | 136 | 0.9 | 1.7 | 0.00 | 0.00 | 0.00 | 72 | 1016.6 |
| 20260507162638 | 67 | 136 | 2.6 | 2.6 | 0.00 | 0.00 | 0.00 | 70 | 1016.7 |
| 20260507162134 | 66 | 136 | 1.7 | 1.7 | 0.00 | 0.00 | 0.00 | 70 | 1016.6 |
| 20260507161630 | 67 | 135 | 0.9 | 2.6 | 0.00 | 0.00 | 0.00 | 71 | 1016.6 |
| 20260507161127 | 65 | 135 | 0.0 | 1.7 | 0.00 | 0.00 | 0.00 | 72 | 1016.7 |
| 20260507160623 | 65 | 135 | 0.9 | 1.7 | 0.00 | 0.00 | 0.00 | 73 | 1016.7 |
| 20260507160121 | 65 | 135 | 1.7 | 2.6 | 0.00 | 0.00 | 0.00 | 74 | 1016.9 |
| 20260507155616 | 64 | 135 | 0.0 | 0.0 | 0.00 | 0.00 | 0.00 | 76 | 1016.7 |
| 20260507155114 | 64 | 135 | 0.0 | 0.0 | 0.00 | 0.00 | 0.00 | 76 | 1017.0 |
| 20260507154610 | 64 | 135 | 0.0 | 0.0 | 0.00 | 0.00 | 0.00 | 76 | 1016.9 |
| 20260507154107 | 66 | 135 | 0.0 | 0.0 | 0.00 | 0.00 | 0.00 | 72 | 1017.0 |
| 20260507153604 | 65 | 135 | 0.0 | 0.0 | 0.00 | 0.00 | 0.00 | 73 | 1016.9 |
| 20260507153101 | 64 | 135 | 0.0 | 0.0 | 0.00 | 0.00 | 0.00 | 74 | 1017.0 |
| 20260507152556 | 63 | 135 | 0.0 | 0.0 | 0.00 | 0.00 | 0.00 | 77 | 1016.8 |
| 20260507152052 | 63 | 135 | 0.0 | 0.0 | 0.00 | 0.00 | 0.00 | 77 | 1016.9 |
| 20260507151548 | 62 | 135 | 0.0 | 0.0 | 0.00 | 0.00 | 0.00 | 78 | 1016.9 |
| 20260507151045 | 62 | 135 | 0.0 | 0.0 | 0.00 | 0.00 | 0.00 | 78 | 1016.8 |
| 20260507150542 | 61 | 135 | 0.0 | 0.0 | 0.00 | 0.00 | 0.00 | 79 | 1016.9 |
| 20260507150039 | 61 | 135 | 0.0 | 0.0 | 0.00 | 0.00 | 0.00 | 79 | 1016.9 |
| 20260507145540 | 61 | 135 | 0.0 | 0.0 | 0.00 | 0.00 | 0.00 | 79 | 1016.9 |
| 20260507145038 | 60 | 135 | 0.0 | 0.0 | 0.00 | 0.00 | 0.00 | 80 | 1016.9 |
| 20260507144534 | 60 | 135 | 0.0 | 0.0 | 0.00 | 0.00 | 0.00 | 81 | 1016.6 |
| 20260507144032 | 59 | 135 | 0.0 | 0.0 | 0.00 | 0.00 | 0.00 | 84 | 1016.7 |
| 20260507143529 | 58 | 135 | 0.0 | 0.0 | 0.00 | 0.00 | 0.00 | 86 | 1016.7 |
| 20260507143026 | 58 | 135 | 0.0 | 0.0 | 0.00 | 0.00 | 0.00 | 88 | 1016.6 |
| 20260507142522 | 57 | 136 | 0.0 | 0.0 | 0.00 | 0.00 | 0.00 | 91 | 1016.6 |
| 20260507142019 | 56 | 138 | 0.0 | 0.0 | 0.00 | 0.00 | 0.00 | 93 | 1016.5 |
| 20260507141515 | 54 | 172 | 0.0 | 0.0 | 0.00 | 0.00 | 0.00 | 94 | 1016.5 |
| 20260507141012 | 53 | 179 | 0.0 | 0.0 | 0.00 | 0.00 | 0.00 | 94 | 1016.5 |
| 20260507140508 | 53 | 193 | 0.0 | 0.0 | 0.00 | 0.00 | 0.00 | 94 | 1016.5 |
| 20260507140006 | 53 | 203 | 0.0 | 0.0 | 0.00 | 0.00 | 0.00 | 95 | 1016.4 |
| 20260507135502 | 53 | 122 | 0.0 | 0.0 | 0.00 | 0.00 | 0.00 | 95 | 1016.4 |
| 20260507134959 | 52 | 171 | 0.0 | 0.0 | 0.00 | 0.00 | 0.00 | 95 | 1016.4 |
| 20260507134456 | 52 | 171 | 0.0 | 0.0 | 0.00 | 0.00 | 0.00 | 95 | 1016.2 |
| 20260507133952 | 52 | 171 | 0.0 | 0.0 | 0.00 | 0.00 | 0.00 | 95 | 1016.2 |
| 20260507133448 | 52 | 172 | 0.0 | 0.0 | 0.00 | 0.00 | 0.00 | 95 | 1016.2 |
| 20260507132947 | 53 | 120 | 0.0 | 0.0 | 0.00 | 0.00 | 0.00 | 95 | 1016.2 |
| 20260507132442 | 52 | 85 | 0.0 | 0.0 | 0.00 | 0.00 | 0.00 | 95 | 1016.2 |
| 20260507131938 | 52 | 70 | 0.0 | 0.0 | 0.00 | 0.00 | 0.00 | 95 | 1016.2 |
| 20260507131436 | 52 | 125 | 0.0 | 0.0 | 0.00 | 0.00 | 0.00 | 95 | 1016.2 |
| 20260507130933 | 52 | 53 | 0.0 | 0.0 | 0.00 | 0.00 | 0.00 | 95 | 1016.2 |
| 20260507130430 | 51 | 70 | 0.0 | 0.0 | 0.00 | 0.00 | 0.00 | 95 | 1016.0 |
| 20260507125929 | 51 | 91 | 0.0 | 0.0 | 0.00 | 0.00 | 0.00 | 94 | 1016.1 |
| 20260507125426 | 51 | 70 | 0.0 | 0.0 | 0.00 | 0.00 | 0.00 | 94 | 1016.0 |
| 20260507124923 | 51 | 136 | 0.0 | 0.0 | 0.00 | 0.00 | 0.00 | 94 | 1015.9 |
| 20260507124419 | 51 | 136 | 0.0 | 0.0 | 0.00 | 0.00 | 0.00 | 94 | 1015.9 |
| 20260507123918 | 52 | 120 | 0.0 | 0.0 | 0.00 | 0.00 | 0.00 | 94 | 1016.0 |
| 20260507123415 | 52 | 120 | 0.0 | 0.0 | 0.00 | 0.00 | 0.00 | 94 | 1016.0 |
| 20260507122911 | 52 | 117 | 0.0 | 0.0 | 0.00 | 0.00 | 0.00 | 94 | 1015.8 |
| 20260507122406 | 51 | 165 | 0.0 | 0.0 | 0.00 | 0.00 | 0.00 | 94 | 1015.8 |
| 20260507121903 | 51 | 204 | 0.0 | 0.0 | 0.00 | 0.00 | 0.00 | 94 | 1015.9 |
| 20260507121358 | 51 | 143 | 0.0 | 0.0 | 0.00 | 0.00 | 0.00 | 93 | 1015.8 |
| 20260507120855 | 51 | 144 | 0.0 | 0.0 | 0.00 | 0.00 | 0.00 | 93 | 1015.9 |
| 20260507120352 | 51 | 143 | 0.0 | 0.0 | 0.00 | 0.00 | 0.00 | 93 | 1015.6 |
| 20260507115848 | 52 | 101 | 0.0 | 0.0 | 0.00 | 0.00 | 0.00 | 93 | 1015.7 |
| 20260507115343 | 52 | 195 | 0.0 | 0.0 | 0.00 | 0.00 | 0.00 | 93 | 1015.8 |
| 20260507114839 | 52 | 195 | 0.0 | 0.0 | 0.00 | 0.00 | 0.00 | 93 | 1015.6 |
| 20260507114337 | 52 | 196 | 0.0 | 0.0 | 0.00 | 0.00 | 0.00 | 93 | 1015.8 |
| 20260507113834 | 53 | 196 | 0.0 | 0.0 | 0.00 | 0.00 | 0.00 | 92 | 1015.8 |
| 20260507113331 | 53 | 116 | 0.0 | 0.0 | 0.00 | 0.00 | 0.00 | 92 | 1015.9 |
| 20260507112829 | 53 | 173 | 0.0 | 0.0 | 0.00 | 0.00 | 0.00 | 92 | 1015.9 |
| 20260507112325 | 53 | 173 | 0.0 | 0.0 | 0.00 | 0.00 | 0.00 | 92 | 1016.0 |
| 20260507111823 | 53 | 201 | 0.0 | 0.0 | 0.00 | 0.00 | 0.00 | 92 | 1016.2 |
| 20260507111320 | 53 | 201 | 0.0 | 0.0 | 0.00 | 0.00 | 0.00 | 92 | 1016.1 |
| 20260507110816 | 53 | 3 | 0.0 | 0.0 | 0.00 | 0.00 | 0.00 | 92 | 1016.2 |
| 20260507110312 | 54 | 40 | 0.0 | 0.0 | 0.00 | 0.00 | 0.00 | 92 | 1016.1 |
| 20260507105809 | 54 | 69 | 0.0 | 0.0 | 0.00 | 0.00 | 0.00 | 92 | 1016.1 |
| 20260507105307 | 54 | 70 | 0.0 | 0.0 | 0.00 | 0.00 | 0.00 | 92 | 1016.2 |
| 20260507104803 | 54 | 211 | 0.0 | 0.0 | 0.00 | 0.00 | 0.00 | 92 | 1016.2 |
| 20260507104259 | 54 | 21 | 0.0 | 0.0 | 0.00 | 0.00 | 0.00 | 92 | 1016.1 |
| 20260507103755 | 53 | 289 | 0.0 | 0.0 | 0.00 | 0.00 | 0.00 | 92 | 1016.2 |
| 20260507103251 | 54 | 83 | 0.0 | 0.0 | 0.00 | 0.00 | 0.00 | 92 | 1016.2 |
| 20260507102748 | 54 | 69 | 0.0 | 0.0 | 0.00 | 0.00 | 0.00 | 92 | 1016.5 |
| 20260507102245 | 54 | 26 | 0.0 | 0.0 | 0.00 | 0.00 | 0.00 | 92 | 1016.3 |
| 20260507101741 | 54 | 35 | 0.0 | 0.0 | 0.00 | 0.00 | 0.00 | 92 | 1016.2 |
| 20260507101236 | 54 | 68 | 0.0 | 0.0 | 0.00 | 0.00 | 0.00 | 92 | 1016.4 |
| 20260507100734 | 54 | 143 | 0.0 | 0.0 | 0.00 | 0.00 | 0.00 | 92 | 1016.5 |
| 20260507100232 | 54 | 152 | 0.0 | 0.0 | 0.00 | 0.00 | 0.00 | 92 | 1016.5 |
| 20260507095730 | 54 | 222 | 0.0 | 0.0 | 0.00 | 0.00 | 0.00 | 92 | 1016.5 |
| 20260507095226 | 54 | 217 | 0.0 | 0.0 | 0.00 | 0.00 | 0.00 | 91 | 1016.5 |
| 20260507094723 | 54 | 236 | 0.0 | 0.0 | 0.00 | 0.00 | 0.00 | 91 | 1016.3 |
| 20260507094220 | 54 | 190 | 0.0 | 0.0 | 0.00 | 0.00 | 0.00 | 90 | 1016.6 |
| 20260507093717 | 55 | 191 | 0.0 | 0.0 | 0.00 | 0.00 | 0.00 | 90 | 1016.7 |
| 20260507093215 | 55 | 94 | 0.0 | 0.0 | 0.00 | 0.00 | 0.00 | 89 | 1016.5 |
| 20260507092712 | 55 | 87 | 0.0 | 0.0 | 0.00 | 0.00 | 0.00 | 90 | 1016.6 |
| 20260507092208 | 56 | 320 | 0.0 | 0.9 | 0.00 | 0.00 | 0.00 | 90 | 1016.5 |
| 20260507091705 | 56 | 10 | 0.0 | 0.9 | 0.00 | 0.00 | 0.00 | 90 | 1016.6 |
| 20260507091201 | 56 | 313 | 0.0 | 0.9 | 0.00 | 0.00 | 0.00 | 91 | 1016.7 |
| 20260507090657 | 56 | 344 | 0.0 | 0.9 | 0.00 | 0.00 | 0.00 | 91 | 1016.7 |
| 20260507090154 | 56 | 6 | 0.9 | 0.9 | 0.00 | 0.00 | 0.00 | 91 | 1016.8 |
| 20260507085651 | 56 | 335 | 0.9 | 0.9 | 0.00 | 0.00 | 0.00 | 92 | 1016.7 |
| 20260507085148 | 56 | 324 | 0.0 | 0.0 | 0.00 | 0.00 | 0.00 | 92 | 1016.9 |
| 20260507084645 | 56 | 325 | 0.0 | 0.9 | 0.00 | 0.00 | 0.00 | 92 | 1016.8 |
| 20260507084141 | 56 | 260 | 0.0 | 0.0 | 0.00 | 0.00 | 0.00 | 92 | 1016.9 |
| 20260507083638 | 55 | 239 | 0.0 | 0.9 | 0.00 | 0.00 | 0.00 | 92 | 1017.1 |
| 20260507083135 | 55 | 238 | 0.0 | 0.0 | 0.00 | 0.00 | 0.00 | 91 | 1017.0 |
| 20260507082631 | 55 | 238 | 0.0 | 0.0 | 0.00 | 0.00 | 0.00 | 91 | 1017.1 |
| 20260507082127 | 55 | 237 | 0.0 | 0.0 | 0.00 | 0.00 | 0.00 | 91 | 1017.0 |
| 20260507081624 | 55 | 240 | 0.0 | 0.0 | 0.00 | 0.00 | 0.00 | 91 | 1017.2 |
| 20260507081121 | 56 | 168 | 0.0 | 0.0 | 0.00 | 0.00 | 0.00 | 90 | 1017.0 |
| 20260507080617 | 56 | 127 | 0.0 | 0.0 | 0.00 | 0.00 | 0.00 | 90 | 1017.3 |
| 20260507080114 | 56 | 67 | 0.0 | 0.0 | 0.00 | 0.00 | 0.00 | 90 | 1017.0 |
| 20260507075614 | 56 | 25 | 0.9 | 0.9 | 0.00 | 0.00 | 0.00 | 90 | 1017.3 |
| 20260507075111 | 56 | 69 | 0.0 | 0.9 | 0.00 | 0.00 | 0.00 | 90 | 1017.2 |
| 20260507074608 | 57 | 114 | 0.0 | 0.9 | 0.00 | 0.00 | 0.00 | 89 | 1017.3 |
| 20260507074106 | 57 | 31 | 0.9 | 1.7 | 0.00 | 0.00 | 0.00 | 89 | 1017.1 |
| 20260507073602 | 57 | 58 | 0.0 | 0.0 | 0.00 | 0.00 | 0.00 | 89 | 1017.3 |
| 20260507073058 | 57 | 126 | 0.0 | 0.0 | 0.00 | 0.00 | 0.00 | 89 | 1017.4 |
| 20260507072556 | 57 | 121 | 0.0 | 0.0 | 0.00 | 0.00 | 0.00 | 89 | 1017.4 |
| 20260507072053 | 57 | 70 | 0.0 | 0.9 | 0.00 | 0.00 | 0.00 | 89 | 1017.4 |
| 20260507071550 | 57 | 23 | 0.0 | 0.0 | 0.00 | 0.00 | 0.00 | 89 | 1017.6 |
| 20260507071047 | 57 | 97 | 0.0 | 0.0 | 0.00 | 0.00 | 0.00 | 89 | 1017.5 |
| 20260507070544 | 57 | 141 | 0.0 | 0.0 | 0.00 | 0.00 | 0.00 | 89 | 1017.5 |
| 20260507070041 | 57 | 43 | 0.0 | 0.0 | 0.00 | 0.00 | 0.00 | 89 | 1017.5 |
| 20260507065537 | 57 | 34 | 0.9 | 0.9 | 0.00 | 0.00 | 0.00 | 89 | 1017.5 |
| 20260507065034 | 57 | 40 | 0.9 | 1.7 | 0.00 | 0.00 | 0.00 | 89 | 1017.4 |
| 20260507064532 | 57 | 92 | 0.0 | 0.9 | 0.00 | 0.00 | 0.00 | 89 | 1017.5 |
| 20260507064031 | 57 | 57 | 1.7 | 1.7 | 0.00 | 0.00 | 0.00 | 89 | 1017.5 |
| 20260507063527 | 57 | 31 | 0.9 | 1.7 | 0.00 | 0.00 | 0.00 | 89 | 1017.4 |
| 20260507063025 | 57 | 82 | 0.0 | 0.9 | 0.00 | 0.00 | 0.00 | 89 | 1017.2 |
| 20260507062521 | 58 | 49 | 0.9 | 0.9 | 0.00 | 0.00 | 0.00 | 89 | 1017.4 |
| 20260507062019 | 57 | 50 | 0.9 | 1.7 | 0.00 | 0.00 | 0.00 | 89 | 1017.4 |
| 20260507061517 | 57 | 47 | 0.9 | 0.9 | 0.00 | 0.00 | 0.00 | 88 | 1017.3 |
| 20260507061014 | 57 | 68 | 0.0 | 0.9 | 0.00 | 0.00 | 0.00 | 88 | 1017.5 |
| 20260507060512 | 57 | 75 | 0.0 | 0.9 | 0.00 | 0.00 | 0.00 | 88 | 1017.3 |
| 20260507060009 | 57 | 86 | 0.0 | 0.9 | 0.00 | 0.00 | 0.00 | 88 | 1017.6 |
| 20260507055503 | 57 | 73 | 0.0 | 0.9 | 0.00 | 0.00 | 0.00 | 88 | 1017.5 |
| 20260507055000 | 57 | 61 | 0.0 | 0.9 | 0.00 | 0.00 | 0.00 | 88 | 1017.5 |
| 20260507054456 | 57 | 105 | 0.0 | 0.9 | 0.00 | 0.00 | 0.00 | 89 | 1017.5 |
| 20260507053953 | 57 | 49 | 0.9 | 0.9 | 0.00 | 0.00 | 0.00 | 88 | 1017.5 |
| 20260507053451 | 57 | 52 | 0.0 | 0.9 | 0.00 | 0.00 | 0.00 | 88 | 1017.4 |
| 20260507052949 | 57 | 68 | 0.0 | 0.9 | 0.00 | 0.00 | 0.00 | 88 | 1017.7 |
| 20260507052447 | 57 | 38 | 0.9 | 1.7 | 0.00 | 0.00 | 0.00 | 88 | 1017.7 |
| 20260507051943 | 57 | 93 | 0.0 | 0.0 | 0.00 | 0.00 | 0.00 | 87 | 1017.6 |
| 20260507051441 | 58 | 90 | 0.0 | 0.0 | 0.00 | 0.00 | 0.00 | 87 | 1017.5 |
| 20260507050938 | 58 | 90 | 0.0 | 0.9 | 0.00 | 0.00 | 0.00 | 87 | 1017.5 |
| 20260507050434 | 58 | 90 | 0.0 | 0.0 | 0.00 | 0.00 | 0.00 | 87 | 1017.4 |
| 20260507045931 | 58 | 82 | 0.0 | 0.0 | 0.00 | 0.00 | 0.00 | 87 | 1017.3 |
| 20260507045428 | 58 | 80 | 0.0 | 0.0 | 0.00 | 0.00 | 0.00 | 86 | 1017.2 |
| 20260507044925 | 58 | 88 | 0.9 | 0.9 | 0.00 | 0.00 | 0.00 | 86 | 1017.2 |
| 20260507044422 | 58 | 98 | 0.0 | 0.9 | 0.00 | 0.00 | 0.00 | 86 | 1017.4 |
| 20260507043918 | 58 | 105 | 0.0 | 0.0 | 0.00 | 0.00 | 0.00 | 86 | 1017.3 |
| 20260507043414 | 59 | 102 | 0.0 | 0.0 | 0.00 | 0.00 | 0.00 | 85 | 1017.4 |
| 20260507042910 | 59 | 101 | 0.0 | 0.9 | 0.00 | 0.00 | 0.00 | 85 | 1017.4 |
| 20260507042407 | 59 | 222 | 0.0 | 0.0 | 0.00 | 0.00 | 0.00 | 85 | 1017.2 |
| 20260507041903 | 59 | 226 | 0.0 | 0.0 | 0.00 | 0.00 | 0.00 | 84 | 1017.5 |
| 20260507041400 | 59 | 236 | 0.0 | 0.0 | 0.00 | 0.00 | 0.00 | 84 | 1017.5 |
| 20260507040857 | 59 | 237 | 0.0 | 0.9 | 0.00 | 0.00 | 0.00 | 84 | 1017.3 |
| 20260507040353 | 59 | 226 | 0.0 | 0.0 | 0.00 | 0.00 | 0.00 | 84 | 1017.3 |
| 20260507035849 | 59 | 228 | 0.0 | 0.0 | 0.00 | 0.00 | 0.00 | 84 | 1017.2 |
| 20260507035345 | 59 | 240 | 0.9 | 0.9 | 0.00 | 0.00 | 0.00 | 83 | 1017.3 |
| 20260507034843 | 59 | 169 | 0.0 | 0.0 | 0.00 | 0.00 | 0.00 | 83 | 1017.0 |
| 20260507034339 | 59 | 113 | 0.0 | 0.0 | 0.00 | 0.00 | 0.00 | 83 | 1017.1 |
| 20260507033837 | 60 | 100 | 0.0 | 0.0 | 0.00 | 0.00 | 0.00 | 82 | 1016.9 |
| 20260507033335 | 60 | 175 | 0.0 | 0.9 | 0.00 | 0.00 | 0.00 | 82 | 1016.9 |
| 20260507032832 | 60 | 206 | 0.0 | 0.9 | 0.00 | 0.00 | 0.00 | 82 | 1016.8 |
| 20260507032328 | 60 | 341 | 0.9 | 0.9 | 0.00 | 0.00 | 0.00 | 81 | 1017.0 |
| 20260507031824 | 60 | 347 | 0.0 | 0.9 | 0.00 | 0.00 | 0.00 | 81 | 1016.9 |
| 20260507031321 | 60 | 216 | 0.0 | 0.9 | 0.00 | 0.00 | 0.00 | 81 | 1016.9 |
| 20260507030818 | 60 | 254 | 0.0 | 0.9 | 0.00 | 0.00 | 0.00 | 80 | 1016.8 |
| 20260507030316 | 61 | 231 | 0.0 | 0.9 | 0.00 | 0.00 | 0.00 | 80 | 1016.8 |
| 20260507025812 | 61 | 218 | 0.0 | 1.7 | 0.00 | 0.00 | 0.00 | 81 | 1016.7 |
| 20260507025309 | 61 | 221 | 0.9 | 0.9 | 0.00 | 0.00 | 0.00 | 81 | 1016.5 |
| 20260507024808 | 61 | 246 | 0.0 | 1.7 | 0.00 | 0.00 | 0.00 | 80 | 1016.5 |
| 20260507024304 | 62 | 277 | 1.7 | 2.6 | 0.00 | 0.00 | 0.00 | 79 | 1016.5 |
| 20260507023800 | 62 | 220 | 0.9 | 0.9 | 0.00 | 0.00 | 0.00 | 78 | 1016.7 |
| 20260507023257 | 62 | 211 | 0.0 | 0.9 | 0.00 | 0.00 | 0.00 | 78 | 1016.5 |
| 20260507022754 | 63 | 300 | 0.9 | 1.7 | 0.00 | 0.00 | 0.00 | 77 | 1016.5 |
| 20260507022250 | 63 | 223 | 0.0 | 0.9 | 0.00 | 0.00 | 0.00 | 76 | 1016.3 |
| 20260507021747 | 63 | 242 | 2.6 | 2.6 | 0.00 | 0.00 | 0.00 | 74 | 1016.3 |
| 20260507021242 | 64 | 257 | 0.9 | 1.7 | 0.00 | 0.00 | 0.00 | 74 | 1016.3 |
| 20260507020741 | 64 | 257 | 0.9 | 1.7 | 0.00 | 0.00 | 0.00 | 71 | 1016.3 |
| 20260507020237 | 65 | 227 | 1.7 | 2.6 | 0.00 | 0.00 | 0.00 | 69 | 1016.3 |
| 20260507015735 | 65 | 204 | 0.9 | 3.5 | 0.00 | 0.00 | 0.00 | 67 | 1016.2 |
| 20260507015232 | 66 | 232 | 1.7 | 2.6 | 0.00 | 0.00 | 0.00 | 65 | 1016.2 |
| 20260507014728 | 66 | 249 | 1.7 | 3.5 | 0.00 | 0.00 | 0.00 | 63 | 1016.3 |
| 20260507014225 | 66 | 323 | 1.7 | 1.7 | 0.00 | 0.00 | 0.00 | 63 | 1016.1 |
| 20260507013721 | 67 | 237 | 1.7 | 2.6 | 0.00 | 0.00 | 0.00 | 62 | 1015.9 |
| 20260507013219 | 66 | 224 | 0.9 | 3.5 | 0.00 | 0.00 | 0.00 | 61 | 1016.0 |
| 20260507012716 | 67 | 253 | 2.6 | 6.1 | 0.00 | 0.00 | 0.00 | 59 | 1015.9 |
| 20260507012216 | 67 | 235 | 1.7 | 3.5 | 0.00 | 0.00 | 0.00 | 58 | 1016.1 |
| 20260507011714 | 68 | 233 | 2.6 | 3.5 | 0.00 | 0.00 | 0.00 | 57 | 1016.0 |
| 20260507011211 | 67 | 205 | 1.7 | 3.5 | 0.00 | 0.00 | 0.00 | 59 | 1015.9 |
| 20260507010710 | 68 | 233 | 1.7 | 3.5 | 0.00 | 0.00 | 0.00 | 58 | 1016.0 |
| 20260507010207 | 68 | 248 | 3.5 | 3.5 | 0.00 | 0.00 | 0.00 | 59 | 1015.8 |
| 20260507005704 | 69 | 244 | 1.7 | 6.1 | 0.00 | 0.00 | 0.00 | 58 | 1015.8 |
| 20260507005200 | 69 | 258 | 1.7 | 3.5 | 0.00 | 0.00 | 0.00 | 59 | 1015.9 |
| 20260507004657 | 69 | 242 | 3.5 | 7.8 | 0.00 | 0.00 | 0.00 | 59 | 1015.8 |
| 20260507004155 | 69 | 234 | 4.3 | 6.1 | 0.00 | 0.00 | 0.00 | 59 | 1015.8 |
| 20260507003651 | 69 | 254 | 4.3 | 6.1 | 0.00 | 0.00 | 0.00 | 60 | 1015.6 |
| 20260507003151 | 71 | 311 | 1.7 | 3.5 | 0.00 | 0.00 | 0.00 | 59 | 1015.8 |
| 20260507002648 | 70 | 248 | 1.7 | 3.5 | 0.00 | 0.00 | 0.00 | 59 | 1015.6 |
| 20260507002143 | 71 | 230 | 2.6 | 5.2 | 0.00 | 0.00 | 0.00 | 58 | 1015.7 |
| 20260507001640 | 71 | 256 | 5.2 | 6.1 | 0.00 | 0.00 | 0.00 | 59 | 1015.7 |
| 20260507001138 | 72 | 187 | 2.6 | 6.1 | 0.00 | 0.00 | 0.00 | 57 | 1015.7 |
| 20260507000634 | 72 | 286 | 1.7 | 5.2 | 0.00 | 0.00 | 0.00 | 58 | 1015.5 |
| 20260507000130 | 72 | 244 | 0.9 | 6.1 | 0.00 | 0.00 | 0.00 | 56 | 1015.4 |
| 20260506235627 | 74 | 272 | 2.6 | 6.1 | 0.00 | 0.00 | 0.00 | 53 | 1015.4 |
| 20260506235127 | 73 | 218 | 2.6 | 6.1 | 0.00 | 0.00 | 0.00 | 55 | 1015.3 |
| 20260506234625 | 74 | 187 | 2.6 | 3.5 | 0.00 | 0.00 | 0.00 | 53 | 1015.4 |
| 20260506234122 | 73 | 223 | 0.9 | 5.2 | 0.00 | 0.00 | 0.00 | 55 | 1015.3 |
| 20260506233619 | 73 | 193 | 2.6 | 3.5 | 0.00 | 0.00 | 0.00 | 55 | 1015.3 |
| 20260506233116 | 74 | 236 | 2.6 | 6.1 | 0.00 | 0.00 | 0.00 | 54 | 1015.4 |
| 20260506232612 | 73 | 311 | 1.7 | 5.2 | 0.00 | 0.00 | 0.00 | 54 | 1015.3 |
| 20260506232107 | 73 | 297 | 2.6 | 6.1 | 0.00 | 0.00 | 0.00 | 56 | 1015.4 |
| 20260506231605 | 74 | 262 | 3.5 | 3.5 | 0.00 | 0.00 | 0.00 | 53 | 1015.4 |
| 20260506231103 | 74 | 210 | 3.5 | 7.0 | 0.00 | 0.00 | 0.00 | 54 | 1015.5 |
| 20260506230559 | 75 | 237 | 1.7 | 3.5 | 0.00 | 0.00 | 0.00 | 52 | 1015.3 |
| 20260506230056 | 74 | 248 | 0.9 | 8.7 | 0.00 | 0.00 | 0.00 | 53 | 1015.6 |
| 20260506225553 | 74 | 285 | 3.5 | 5.2 | 0.00 | 0.00 | 0.00 | 53 | 1015.5 |
| 20260506225049 | 73 | 274 | 3.5 | 6.1 | 0.00 | 0.00 | 0.00 | 55 | 1015.5 |
| 20260506224547 | 75 | 339 | 3.5 | 5.2 | 0.00 | 0.00 | 0.00 | 52 | 1015.7 |
| 20260506224043 | 75 | 303 | 2.6 | 5.2 | 0.00 | 0.00 | 0.00 | 53 | 1015.6 |
| 20260506223539 | 75 | 263 | 3.5 | 5.2 | 0.00 | 0.00 | 0.00 | 56 | 1015.8 |
| 20260506223036 | 76 | 262 | 1.7 | 3.5 | 0.00 | 0.00 | 0.00 | 53 | 1015.9 |
| 20260506222533 | 74 | 202 | 2.6 | 3.5 | 0.00 | 0.00 | 0.00 | 56 | 1015.8 |
| 20260506222029 | 75 | 211 | 3.5 | 5.2 | 0.00 | 0.00 | 0.00 | 55 | 1015.8 |
| 20260506221526 | 74 | 323 | 2.6 | 3.5 | 0.00 | 0.00 | 0.00 | 54 | 1015.9 |
| 20260506221024 | 74 | 273 | 2.6 | 3.5 | 0.00 | 0.00 | 0.00 | 56 | 1016.0 |
| 20260506220520 | 74 | 228 | 3.5 | 5.2 | 0.00 | 0.00 | 0.00 | 55 | 1016.2 |
| 20260506220016 | 74 | 271 | 2.6 | 7.0 | 0.00 | 0.00 | 0.00 | 55 | 1015.9 |
| 20260506215513 | 74 | 235 | 1.7 | 7.0 | 0.00 | 0.00 | 0.00 | 58 | 1016.0 |
| 20260506215009 | 74 | 248 | 3.5 | 5.2 | 0.00 | 0.00 | 0.00 | 56 | 1015.9 |
| 20260506214506 | 75 | 249 | 1.7 | 3.5 | 0.00 | 0.00 | 0.00 | 54 | 1016.1 |
| 20260506214003 | 75 | 262 | 1.7 | 7.0 | 0.00 | 0.00 | 0.00 | 55 | 1016.1 |
| 20260506213501 | 75 | 250 | 3.5 | 5.2 | 0.00 | 0.00 | 0.00 | 55 | 1016.1 |
| 20260506212958 | 75 | 165 | 1.7 | 7.0 | 0.00 | 0.00 | 0.00 | 57 | 1016.3 |
| 20260506212454 | 76 | 218 | 3.5 | 7.0 | 0.00 | 0.00 | 0.00 | 54 | 1016.3 |
| 20260506211949 | 76 | 242 | 1.7 | 5.2 | 0.00 | 0.00 | 0.00 | 54 | 1016.5 |
| 20260506211445 | 74 | 234 | 3.5 | 5.2 | 0.00 | 0.00 | 0.00 | 56 | 1016.0 |
| 20260506210942 | 75 | 274 | 4.3 | 6.1 | 0.00 | 0.00 | 0.00 | 54 | 1016.5 |
| 20260506210438 | 74 | 278 | 1.7 | 5.2 | 0.00 | 0.00 | 0.00 | 56 | 1016.2 |
| 20260506205936 | 76 | 212 | 2.6 | 6.1 | 0.00 | 0.00 | 0.00 | 53 | 1016.2 |
| 20260506205432 | 76 | 254 | 1.7 | 6.1 | 0.00 | 0.00 | 0.00 | 55 | 1016.4 |
| 20260506204928 | 74 | 335 | 0.9 | 7.0 | 0.00 | 0.00 | 0.00 | 56 | 1016.6 |
| 20260506204426 | 75 | 264 | 1.7 | 7.8 | 0.00 | 0.00 | 0.00 | 55 | 1016.5 |
| 20260506203923 | 73 | 173 | 4.3 | 9.6 | 0.00 | 0.00 | 0.00 | 57 | 1016.6 |